Location: Paris
(48.6709°N, 2.3750°E)
Time: 13:38:14
(UTC+02:00)

CAS-4B - Pass Details

Date: 10 July 2022
Orbit: 522 x 536 km, 43.0° (Epoch: 18 August)

Event Time Altitude Azimuth Distance (km) Brightness Sun altitude
Exits shadow 04:32:21 12° 247° (WSW) 1,613 ? -10.9°
Maximum altitude 04:34:57 21° 202° (SSW) 1,195 ? -10.7°
Drops below altitude 10° 04:38:02 10° 152° (SSE) 1,756 ? -10.4°
Sets 04:40:38 0° 136° (SE) 2,645 ? -10.1°
